TimeIST,TemperatureF,Dew PointF,Humidity,Sea Level PressureIn,VisibilityMPH,Wind Direction,Wind SpeedMPH,Gust SpeedMPH,PrecipitationIn,Events,Conditions,WindDirDegrees,DateUTC
12:00 AM,50.0,42.8,76,29.77,6.2,WSW,10.4,-,N/A,,Mostly Cloudy,250,2013-09-16 23:00:00
12:30 AM,50.0,42.8,76,29.77,6.2,WSW,9.2,-,N/A,,Mostly Cloudy,240,2013-09-16 23:30:00
1:00 AM,49,44,76,29.78,16,WSW,8.9,,,,Partly Cloudy,240,2013-09-17 00:00:00
1:00 AM,50.0,44.6,82,29.77,6.2,WSW,8.1,-,N/A,,Mostly Cloudy,240,2013-09-17 00:00:00
1:30 AM,48.2,44.6,87,29.74,6.2,SW,8.1,-,N/A,,Mostly Cloudy,230,2013-09-17 00:30:00
2:00 AM,50.0,46.4,87,29.74,6.2,WSW,9.2,-,N/A,,Mostly Cloudy,250,2013-09-17 01:00:00
2:30 AM,50.0,46.4,87,29.74,6.2,WSW,8.1,-,N/A,,Mostly Cloudy,250,2013-09-17 01:30:00
3:00 AM,48.2,48.2,100,29.71,6.2,WSW,6.9,-,N/A,,Mostly Cloudy,240,2013-09-17 02:00:00
3:30 AM,48.2,48.2,100,29.71,6.2,SW,9.2,-,N/A,,Mostly Cloudy,230,2013-09-17 02:30:00
4:00 AM,48.2,48.2,100,29.68,6.2,SW,6.9,-,N/A,,Mostly Cloudy,230,2013-09-17 03:00:00
4:30 AM,50.0,48.2,94,29.68,6.2,SW,8.1,-,N/A,,Mostly Cloudy,230,2013-09-17 03:30:00
5:00 AM,50.0,50.0,100,29.68,6.2,WSW,8.1,-,N/A,,Mostly Cloudy,240,2013-09-17 04:00:00
5:30 AM,50.0,50.0,100,29.65,6.2,WSW,6.9,-,N/A,,Mostly Cloudy,240,2013-09-17 04:30:00
6:00 AM,50.0,50.0,100,29.65,6.2,WSW,8.1,-,N/A,,Mostly Cloudy,250,2013-09-17 05:00:00
6:30 AM,50.0,50.0,100,29.65,6.2,WSW,4.6,-,N/A,,Mostly Cloudy,240,2013-09-17 05:30:00
7:00 AM,50,50,100,29.64,2,SSW,4.5,,,,Mist,210,2013-09-17 06:00:00
7:00 AM,50.0,50.0,100,29.62,2.5,SSW,4.6,-,N/A,,Mostly Cloudy,210,2013-09-17 06:00:00
7:30 AM,50.0,50.0,100,29.59,0.2,SW,6.9,-,N/A,Fog,Fog,220,2013-09-17 06:30:00
8:00 AM,51.8,51.8,100,29.59,0.2,SW,4.6,-,N/A,Fog,Fog,220,2013-09-17 07:00:00
8:30 AM,51.8,51.8,100,29.59,0.4,SW,8.1,-,N/A,Fog,Fog,230,2013-09-17 07:30:00
9:00 AM,53.6,53.6,100,29.56,3.7,SW,10.4,-,N/A,,Scattered Clouds,230,2013-09-17 08:00:00
9:30 AM,55.4,55.4,100,29.53,6.2,SW,11.5,-,N/A,,Mostly Cloudy,230,2013-09-17 08:30:00
10:00 AM,57.2,57.2,100,29.53,6.2,WSW,11.5,-,N/A,Rain,Light Rain,240,2013-09-17 09:00:00
10:30 AM,62.6,60.8,94,29.50,6.2,West,24.2,-,N/A,Rain,Light Rain,260,2013-09-17 09:30:00
11:00 AM,64.4,60.8,88,29.50,6.2,West,28.8,40.3,N/A,,Scattered Clouds,260,2013-09-17 10:00:00
11:30 AM,62.6,60.8,94,29.50,4.3,West,26.5,-,N/A,Rain,Light Rain,270,2013-09-17 10:30:00
12:00 PM,60.8,60.8,100,29.50,4.3,West,21.9,-,N/A,Rain,Light Rain,280,2013-09-17 11:00:00
12:30 PM,60.8,60.8,100,29.50,3.1,West,24.2,38.0,N/A,Rain,Light Rain,280,2013-09-17 11:30:00
1:00 PM,61,60,96,29.51,6,West,22.4,,,Rain,Light Drizzle,280,2013-09-17 12:00:00
1:00 PM,60.8,60.8,100,29.50,5.6,West,23.0,34.5,N/A,,Light Drizzle,280,2013-09-17 12:00:00
1:30 PM,62.6,59.0,88,29.50,6.2,West,27.6,40.3,N/A,,Mostly Cloudy,280,2013-09-17 12:30:00
2:00 PM,64.4,59.0,83,29.47,6.2,West,27.6,42.6,N/A,,Scattered Clouds,280,2013-09-17 13:00:00
2:30 PM,64.4,57.2,77,29.50,6.2,West,28.8,-,N/A,,Scattered Clouds,280,2013-09-17 13:30:00
3:00 PM,64.4,57.2,77,29.50,6.2,West,27.6,-,N/A,,Scattered Clouds,280,2013-09-17 14:00:00
3:30 PM,64.4,57.2,77,29.50,6.2,West,29.9,43.7,N/A,,Scattered Clouds,280,2013-09-17 14:30:00
4:00 PM,62.6,57.2,82,29.50,6.2,WNW,25.3,36.8,N/A,Rain,Light Rain Showers,290,2013-09-17 15:00:00
4:30 PM,62.6,55.4,77,29.50,6.2,WNW,23.0,35.7,N/A,Rain,Light Rain Showers,290,2013-09-17 15:30:00
5:00 PM,59.0,55.4,88,29.50,6.2,WNW,26.5,-,N/A,Rain,Light Rain Showers,300,2013-09-17 16:00:00
5:30 PM,59.0,53.6,82,29.50,6.2,WNW,23.0,-,N/A,,Scattered Clouds,290,2013-09-17 16:30:00
6:00 PM,59.0,51.8,77,29.50,6.2,WNW,23.0,-,N/A,,Mostly Cloudy,290,2013-09-17 17:00:00
6:30 PM,59.0,51.8,77,29.53,6.2,WNW,19.6,-,N/A,,Mostly Cloudy,290,2013-09-17 17:30:00
7:00 PM,58,52,73,29.54,19,WNW,20.1,,,Rain,Light Rain Showers,290,2013-09-17 18:00:00
7:00 PM,59.0,51.8,77,29.53,6.2,WNW,20.7,-,N/A,Rain,Light Rain Showers,290,2013-09-17 18:00:00
7:30 PM,57.2,51.8,82,29.50,6.2,WNW,23.0,-,N/A,,Mostly Cloudy,290,2013-09-17 18:30:00
8:00 PM,59.0,51.8,77,29.53,6.2,WNW,24.2,-,N/A,,Mostly Cloudy,290,2013-09-17 19:00:00
8:30 PM,57.2,51.8,82,29.53,6.2,WNW,23.0,-,N/A,,Mostly Cloudy,290,2013-09-17 19:30:00
9:00 PM,57.2,51.8,82,29.53,6.2,WNW,18.4,-,N/A,Rain,Light Rain,290,2013-09-17 20:00:00
9:30 PM,55.4,53.6,94,29.56,6.2,WNW,12.7,-,N/A,Rain,Light Rain,290,2013-09-17 20:30:00
10:00 PM,55.4,53.6,94,29.56,6.2,WNW,18.4,-,N/A,,Mostly Cloudy,290,2013-09-17 21:00:00
10:30 PM,55.4,51.8,88,29.56,6.2,West,15.0,-,N/A,,Mostly Cloudy,280,2013-09-17 21:30:00
11:00 PM,55.4,51.8,88,29.56,6.2,West,13.8,-,N/A,,Light Drizzle,280,2013-09-17 22:00:00
11:30 PM,53.6,51.8,94,29.56,6.2,WNW,13.8,-,N/A,,Mostly Cloudy,290,2013-09-17 22:30:00